Location: Czekanka
(50.4925°N, 19.2643°E)
Time: 16:30:31
(UTC+00:00)

Cosmos 1892 Rocket - Visible Passes

Search period start: 08 September 2024 00:00
Search period end: 18 September 2024 00:00
Orbit: 602 x 629 km, 82.5° (Epoch: 07 September)

Date Brightness Start Highest point End Pass type
(mag) Time Alt. Az. Time Alt. Az. Time Alt. Az.
08 Sep 5.6 00:40:02 10° NNE 00:43:45 26° ENE 00:46:02 17° ESE visible
08 Sep 4.0 02:17:34 10° NNW 02:21:40 39° W 02:23:03 30° SW visible
09 Sep 4.7 00:55:59 10° N 01:00:10 41° ENE 01:01:20 34° ESE visible
09 Sep 4.7 02:34:13 10° NW 02:37:45 24° W 02:38:21 23° W visible
09 Sep 6.6 23:37:27 10° NE 23:37:49 10° ENE 23:38:11 10° ENE visible
10 Sep 3.7 01:12:06 10° N 01:16:30 70° ENE 01:16:43 68° E visible
10 Sep 5.3 02:51:17 10° NW 02:53:44 15° W 02:53:44 15° W visible
10 Sep 6.1 23:51:41 10° NNE 23:54:26 16° ENE 23:55:09 16° ENE visible
11 Sep 3.7 01:28:21 10° NNW 01:32:12 61° NW 01:32:12 61° NW visible
12 Sep 5.6 00:07:17 10° NNE 00:10:42 25° ENE 00:10:42 25° ENE visible
12 Sep 4.5 01:44:45 10° NNW 01:47:44 34° NW 01:47:44 34° NW visible
13 Sep 5.1 00:23:11 10° N 00:26:17 34° NE 00:26:17 34° NE visible
13 Sep 5.2 02:01:22 10° NNW 02:03:21 20° NW 02:03:21 20° NW visible
14 Sep 5.0 00:39:16 10° N 00:41:57 35° N 00:41:57 35° N visible
14 Sep 5.8 02:18:21 10° NW 02:18:59 12° NW 02:18:59 12° NW visible
14 Sep 6.3 23:18:54 10° NNE 23:20:35 15° NE 23:20:35 15° NE visible
15 Sep 5.2 00:55:30 10° NNW 00:57:37 28° NNW 00:57:37 28° NNW visible
15 Sep 6.1 23:34:27 10° NNE 23:36:16 19° NNE 23:36:16 19° NNE visible
16 Sep 5.6 01:11:52 10° NNW 01:13:20 20° NNW 01:13:20 20° NNW visible
16 Sep 6.0 23:50:20 10° N 23:52:01 21° NNE 23:52:01 21° NNE visible
17 Sep 5.9 01:28:26 10° NNW 01:29:05 13° NW 01:29:05 13° NW visible
